Year,Month,Day,Hour,Minute,Value (Times are PST for temperature in C)
2011,04,10,10,44,9.20
2011,04,10,10,45,9.20
2011,04,10,10,46,9.20
2011,04,10,10,47,9.10
2011,04,10,10,48,9.10
2011,04,10,10,49,9.00
2011,04,10,10,50,9.10
2011,04,10,10,51,9.10
2011,04,10,10,52,9.10
2011,04,10,10,53,9.10
2011,04,10,10,54,9.10
2011,04,10,10,55,9.10
2011,04,10,10,56,9.10
2011,04,10,10,57,9.20
2011,04,10,10,58,9.10
2011,04,10,10,59,9.10
2011,04,10,11,00,9.20
2011,04,10,11,01,9.20
2011,04,10,11,02,9.20
2011,04,10,11,03,9.20
2011,04,10,11,04,9.10
2011,04,10,11,05,9.10
2011,04,10,11,06,9.00
2011,04,10,11,07,9.00
2011,04,10,11,08,9.00
2011,04,10,11,09,8.90
2011,04,10,11,10,8.90
2011,04,10,11,11,8.90
2011,04,10,11,12,8.90
2011,04,10,11,13,8.90
2011,04,10,11,14,8.90
2011,04,10,11,15,8.90
2011,04,10,11,16,8.90
2011,04,10,11,17,8.90
2011,04,10,11,18,9.00
2011,04,10,11,19,9.00
2011,04,10,11,20,8.90
2011,04,10,11,21,9.00
2011,04,10,11,22,8.90
2011,04,10,11,23,8.90
2011,04,10,11,24,8.90
2011,04,10,11,25,8.90
2011,04,10,11,26,8.90
2011,04,10,11,27,8.90
2011,04,10,11,28,8.90
2011,04,10,11,29,8.80
2011,04,10,11,30,8.80
2011,04,10,11,31,8.80
2011,04,10,11,32,8.80
2011,04,10,11,33,8.80
2011,04,10,11,34,8.80
2011,04,10,11,35,8.80
2011,04,10,11,36,8.80
2011,04,10,11,37,8.80
2011,04,10,11,38,8.80
2011,04,10,11,39,8.80
2011,04,10,11,40,8.80
2011,04,10,11,41,8.80
2011,04,10,11,42,8.80
2011,04,10,11,43,8.80
2011,04,10,11,44,8.80
2011,04,10,11,45,8.80
2011,04,10,11,46,8.80
2011,04,10,11,47,8.90
2011,04,10,11,48,8.90
2011,04,10,11,49,8.90
2011,04,10,11,50,8.90
2011,04,10,11,51,9.00
2011,04,10,11,52,9.00
2011,04,10,11,53,9.00
2011,04,10,11,54,9.00
2011,04,10,11,55,9.00
2011,04,10,11,56,9.00
2011,04,10,11,57,9.00
2011,04,10,11,58,9.00
2011,04,10,11,59,9.10
2011,04,10,12,00,9.10
2011,04,10,12,01,9.10
2011,04,10,12,02,9.10
2011,04,10,12,03,9.00
2011,04,10,12,04,9.00
2011,04,10,12,05,9.10
2011,04,10,12,06,9.10
2011,04,10,12,07,9.00
2011,04,10,12,08,9.00
2011,04,10,12,09,9.00
2011,04,10,12,10,9.00
2011,04,10,12,11,9.00
2011,04,10,12,12,9.00
2011,04,10,12,13,8.90
2011,04,10,12,14,8.90
2011,04,10,12,15,8.90
2011,04,10,12,16,9.00
2011,04,10,12,17,9.00
2011,04,10,12,18,9.00
2011,04,10,12,19,9.00
2011,04,10,12,20,9.00
2011,04,10,12,21,9.00
2011,04,10,12,22,9.00
2011,04,10,12,23,9.00
2011,04,10,12,24,9.00
2011,04,10,12,25,9.00
2011,04,10,12,26,9.00
2011,04,10,12,27,9.00
2011,04,10,12,28,9.00
2011,04,10,12,29,9.00
2011,04,10,12,30,9.00
2011,04,10,12,31,9.10
2011,04,10,12,32,9.10
2011,04,10,12,33,9.10
2011,04,10,12,34,9.10
2011,04,10,12,35,9.10
2011,04,10,12,36,9.20
2011,04,10,12,37,9.20
2011,04,10,12,38,9.20
2011,04,10,12,39,9.20
2011,04,10,12,40,9.10
2011,04,10,12,41,9.10
2011,04,10,12,42,9.10
2011,04,10,12,43,9.10
2011,04,10,12,44,9.20
2011,04,10,12,45,9.20
2011,04,10,12,46,9.20
2011,04,10,12,47,9.20
2011,04,10,12,48,9.20
2011,04,10,12,49,9.20
2011,04,10,12,50,9.20
2011,04,10,12,51,9.20
2011,04,10,12,52,9.20
2011,04,10,12,53,9.20
2011,04,10,12,54,9.30
2011,04,10,12,55,9.30
2011,04,10,12,56,9.40
2011,04,10,12,57,9.40
2011,04,10,12,58,9.40
2011,04,10,12,59,9.40
2011,04,10,13,00,9.50
2011,04,10,13,01,9.50
2011,04,10,13,02,9.50
2011,04,10,13,03,9.50
2011,04,10,13,04,9.50
2011,04,10,13,05,9.60
2011,04,10,13,06,9.60
2011,04,10,13,07,9.60
2011,04,10,13,08,9.60
2011,04,10,13,09,9.60
2011,04,10,13,10,9.60
2011,04,10,13,11,9.60
2011,04,10,13,12,9.60
2011,04,10,13,13,9.60
2011,04,10,13,14,9.60
2011,04,10,13,15,9.60
2011,04,10,13,16,9.60
2011,04,10,13,17,9.60
2011,04,10,13,18,9.60
2011,04,10,13,19,9.60
2011,04,10,13,20,9.60
2011,04,10,13,21,9.60
2011,04,10,13,22,9.60
2011,04,10,13,23,9.60
2011,04,10,13,24,9.60
2011,04,10,13,25,9.60
2011,04,10,13,26,9.60
2011,04,10,13,27,9.60
2011,04,10,13,28,9.60
2011,04,10,13,29,9.60
2011,04,10,13,30,9.60
2011,04,10,13,31,9.60
2011,04,10,13,32,9.60
2011,04,10,13,33,9.60
2011,04,10,13,34,9.60
2011,04,10,13,35,9.60
2011,04,10,13,36,9.60
2011,04,10,13,37,9.60
2011,04,10,13,38,9.60
2011,04,10,13,39,9.60
2011,04,10,13,40,9.70
2011,04,10,13,41,9.70
2011,04,10,13,42,9.70
2011,04,10,13,43,9.70
2011,04,10,13,44,9.70
2011,04,10,13,45,9.70
2011,04,10,13,46,9.70
2011,04,10,13,47,9.70
2011,04,10,13,48,9.80
2011,04,10,13,49,9.80
2011,04,10,13,50,9.90
2011,04,10,13,51,9.90
2011,04,10,13,52,10.00
2011,04,10,13,53,10.00
2011,04,10,13,54,10.00
2011,04,10,13,55,10.00
2011,04,10,13,56,10.10
2011,04,10,13,57,10.10
2011,04,10,13,58,10.10
2011,04,10,13,59,10.10
2011,04,10,14,00,10.10
2011,04,10,14,01,10.00
2011,04,10,14,02,10.00
2011,04,10,14,03,10.00
2011,04,10,14,04,10.00
2011,04,10,14,05,10.00
2011,04,10,14,06,10.00
2011,04,10,14,07,10.00
2011,04,10,14,08,10.00
2011,04,10,14,09,10.00
2011,04,10,14,10,10.00
2011,04,10,14,11,10.00
2011,04,10,14,12,10.10
2011,04,10,14,13,10.00
2011,04,10,14,14,9.90
2011,04,10,14,15,9.90
2011,04,10,14,16,9.90
2011,04,10,14,17,10.00
2011,04,10,14,18,10.00
2011,04,10,14,19,10.00
2011,04,10,14,20,10.00
2011,04,10,14,21,10.00
2011,04,10,14,22,10.00
2011,04,10,14,23,10.00
2011,04,10,14,24,10.10
2011,04,10,14,25,10.00
2011,04,10,14,26,10.00
2011,04,10,14,27,9.90
2011,04,10,14,28,10.00
2011,04,10,14,29,10.00
2011,04,10,14,30,10.10
2011,04,10,14,31,10.10
2011,04,10,14,32,10.10
2011,04,10,14,33,10.10
2011,04,10,14,34,10.20
2011,04,10,14,35,10.20
2011,04,10,14,36,10.30
2011,04,10,14,37,10.30
2011,04,10,14,38,10.30
2011,04,10,14,39,10.30
2011,04,10,14,40,10.30
2011,04,10,14,41,10.30
2011,04,10,14,42,10.40
2011,04,10,14,43,10.40
2011,04,10,14,44,10.40
2011,04,10,14,45,10.40
2011,04,10,14,46,10.40
2011,04,10,14,47,10.40
2011,04,10,14,48,10.30
2011,04,10,14,49,10.30
2011,04,10,14,50,10.30
2011,04,10,14,51,10.30
2011,04,10,14,52,10.40
2011,04,10,14,53,10.40
2011,04,10,14,54,10.40
2011,04,10,14,55,10.50
2011,04,10,14,56,10.50
2011,04,10,14,57,10.50
2011,04,10,14,58,10.60
2011,04,10,14,59,10.60
2011,04,10,15,00,10.60
2011,04,10,15,01,10.60
2011,04,10,15,02,10.60
2011,04,10,15,03,10.60
2011,04,10,15,04,10.60
2011,04,10,15,05,10.60
2011,04,10,15,06,10.70
2011,04,10,15,07,10.60
2011,04,10,15,08,10.60
2011,04,10,15,09,10.50
2011,04,10,15,10,10.50
2011,04,10,15,11,10.50
2011,04,10,15,12,10.50
2011,04,10,15,13,10.60
2011,04,10,15,14,10.60
2011,04,10,15,15,10.60
2011,04,10,15,16,10.60
2011,04,10,15,17,10.60
2011,04,10,15,18,10.60
2011,04,10,15,19,10.50
2011,04,10,15,20,10.50
2011,04,10,15,21,10.60
2011,04,10,15,22,10.60
2011,04,10,15,23,10.50
2011,04,10,15,24,10.50
2011,04,10,15,25,10.40
2011,04,10,15,26,10.40
2011,04,10,15,27,10.40
2011,04,10,15,28,10.40
2011,04,10,15,29,10.40
2011,04,10,15,30,10.40
2011,04,10,15,31,10.40
2011,04,10,15,32,10.30
2011,04,10,15,33,10.30
2011,04,10,15,34,10.30
2011,04,10,15,35,10.30
2011,04,10,15,36,10.30
2011,04,10,15,37,10.30
2011,04,10,15,38,10.30
2011,04,10,15,39,10.30
2011,04,10,15,40,10.30
2011,04,10,15,41,10.30
2011,04,10,15,42,10.30
2011,04,10,15,43,10.30
2011,04,10,15,44,10.30
2011,04,10,15,45,10.30
2011,04,10,15,46,10.30
2011,04,10,15,47,10.30
2011,04,10,15,48,10.30
2011,04,10,15,49,10.30
2011,04,10,15,50,10.30
2011,04,10,15,51,10.30
2011,04,10,15,52,10.30
2011,04,10,15,53,10.30
2011,04,10,15,54,10.30
2011,04,10,15,55,10.30
2011,04,10,15,56,10.40
2011,04,10,15,57,10.40
2011,04,10,15,58,10.40
2011,04,10,15,59,10.40
2011,04,10,16,00,10.40
2011,04,10,16,01,10.40
2011,04,10,16,02,10.40
2011,04,10,16,03,10.40
2011,04,10,16,04,10.40
2011,04,10,16,05,10.40
2011,04,10,16,06,10.40
2011,04,10,16,07,10.40
2011,04,10,16,08,10.50
2011,04,10,16,09,10.50
2011,04,10,16,10,10.50
2011,04,10,16,11,10.50
2011,04,10,16,12,10.60
2011,04,10,16,13,10.60
2011,04,10,16,14,10.60
2011,04,10,16,15,10.60
2011,04,10,16,16,10.60
2011,04,10,16,17,10.60
2011,04,10,16,18,10.60
2011,04,10,16,19,10.60
2011,04,10,16,20,10.60
2011,04,10,16,21,10.60
2011,04,10,16,22,10.60
2011,04,10,16,23,10.60
2011,04,10,16,24,10.70
2011,04,10,16,25,10.70
2011,04,10,16,26,10.70
2011,04,10,16,27,10.70
2011,04,10,16,28,10.80
2011,04,10,16,29,10.80
2011,04,10,16,30,10.80
2011,04,10,16,31,10.80
2011,04,10,16,32,10.80
2011,04,10,16,33,10.80
2011,04,10,16,34,10.80
2011,04,10,16,35,10.80
2011,04,10,16,36,10.90
2011,04,10,16,37,10.80
2011,04,10,16,38,10.80
2011,04,10,16,39,10.90
2011,04,10,16,40,10.90
2011,04,10,16,41,10.90
2011,04,10,16,42,10.80
2011,04,10,16,43,10.80
2011,04,10,16,44,10.90
2011,04,10,16,45,10.90
2011,04,10,16,46,10.90
2011,04,10,16,47,10.90
2011,04,10,16,48,10.90
2011,04,10,16,49,10.90
2011,04,10,16,50,10.90
2011,04,10,16,51,10.90
2011,04,10,16,52,10.90
2011,04,10,16,53,10.90
2011,04,10,16,54,10.90
2011,04,10,16,55,10.90
2011,04,10,16,56,10.80
2011,04,10,16,57,10.80
2011,04,10,16,58,10.80
2011,04,10,16,59,10.70
2011,04,10,17,00,10.70
2011,04,10,17,01,10.70
2011,04,10,17,02,10.70
2011,04,10,17,03,10.70
2011,04,10,17,04,10.70
2011,04,10,17,05,10.70
2011,04,10,17,06,10.70
2011,04,10,17,07,10.70
2011,04,10,17,08,10.60
2011,04,10,17,09,10.60
2011,04,10,17,10,10.50
2011,04,10,17,11,10.50
2011,04,10,17,12,10.40
2011,04,10,17,13,10.40
2011,04,10,17,14,10.40
2011,04,10,17,15,10.40
2011,04,10,17,16,10.40
2011,04,10,17,17,10.40
2011,04,10,17,18,10.30
2011,04,10,17,19,10.30
2011,04,10,17,20,10.30
2011,04,10,17,21,10.30
2011,04,10,17,22,10.30
2011,04,10,17,23,10.20
2011,04,10,17,24,10.20
2011,04,10,17,25,10.20
2011,04,10,17,26,10.20
2011,04,10,17,27,10.20
2011,04,10,17,28,10.10
2011,04,10,17,29,10.10
2011,04,10,17,30,10.10
2011,04,10,17,31,10.00
2011,04,10,17,32,10.00
2011,04,10,17,33,9.90
2011,04,10,17,34,9.90
2011,04,10,17,35,9.90
2011,04,10,17,36,9.80
2011,04,10,17,37,9.80
2011,04,10,17,38,9.80
2011,04,10,17,39,9.80
2011,04,10,17,40,9.80
2011,04,10,17,41,9.80
2011,04,10,17,42,9.70
2011,04,10,17,43,9.70
2011,04,10,17,44,9.70
2011,04,10,17,45,9.70
2011,04,10,17,46,9.70
2011,04,10,17,47,9.70
2011,04,10,17,48,9.70
2011,04,10,17,49,9.70
2011,04,10,17,50,9.70
2011,04,10,17,51,9.70
2011,04,10,17,52,9.70
2011,04,10,17,53,9.70
2011,04,10,17,54,9.70
2011,04,10,17,55,9.70
2011,04,10,17,56,9.70
2011,04,10,17,57,9.70
2011,04,10,17,58,9.70
2011,04,10,17,59,9.60
2011,04,10,18,00,9.60
2011,04,10,18,01,9.60
2011,04,10,18,02,9.60
2011,04,10,18,03,9.60
2011,04,10,18,04,9.60
2011,04,10,18,05,9.60
2011,04,10,18,06,9.60
2011,04,10,18,07,9.60
2011,04,10,18,08,9.60
2011,04,10,18,09,9.60
2011,04,10,18,10,9.50
2011,04,10,18,11,9.50
2011,04,10,18,12,9.50
2011,04,10,18,13,9.50
2011,04,10,18,14,9.50
2011,04,10,18,15,9.40
2011,04,10,18,16,9.40
2011,04,10,18,17,9.40
2011,04,10,18,18,9.40
2011,04,10,18,19,9.40
2011,04,10,18,20,9.40
2011,04,10,18,21,9.30
2011,04,10,18,22,9.30
2011,04,10,18,23,9.30
2011,04,10,18,24,9.30
2011,04,10,18,25,9.30
2011,04,10,18,26,9.30
2011,04,10,18,27,9.30
2011,04,10,18,28,9.30
2011,04,10,18,29,9.30
2011,04,10,18,30,9.20
2011,04,10,18,31,9.20
2011,04,10,18,32,9.20
2011,04,10,18,33,9.20
2011,04,10,18,34,9.20
2011,04,10,18,35,9.20
2011,04,10,18,36,9.20
2011,04,10,18,37,9.20
2011,04,10,18,38,9.20
2011,04,10,18,39,9.20
2011,04,10,18,40,9.20
2011,04,10,18,41,9.20
2011,04,10,18,42,9.20
2011,04,10,18,43,9.20
2011,04,10,18,44,9.20
2011,04,10,18,45,9.20
2011,04,10,18,46,9.20
2011,04,10,18,47,9.20
2011,04,10,18,48,9.20
2011,04,10,18,49,9.10
2011,04,10,18,50,9.10
2011,04,10,18,51,9.10
2011,04,10,18,52,9.10
2011,04,10,18,53,9.10
2011,04,10,18,54,9.10
2011,04,10,18,55,9.10
2011,04,10,18,56,9.10
2011,04,10,18,57,9.10
2011,04,10,18,58,9.10
2011,04,10,18,59,9.10
2011,04,10,19,00,9.10
2011,04,10,19,01,9.10
2011,04,10,19,02,9.10
2011,04,10,19,03,9.10
2011,04,10,19,04,9.10
2011,04,10,19,05,9.10
2011,04,10,19,06,9.10
2011,04,10,19,07,9.10
2011,04,10,19,08,9.10
2011,04,10,19,09,9.10
2011,04,10,19,10,9.10
2011,04,10,19,11,9.10
2011,04,10,19,12,9.10
2011,04,10,19,13,9.10
2011,04,10,19,14,9.10
2011,04,10,19,15,9.10
2011,04,10,19,16,9.10
2011,04,10,19,17,9.10
2011,04,10,19,18,9.10
2011,04,10,19,19,9.10
2011,04,10,19,20,9.20
2011,04,10,19,21,9.10
2011,04,10,19,22,9.10
2011,04,10,19,23,9.10
2011,04,10,19,24,9.10
2011,04,10,19,25,9.10
2011,04,10,19,26,9.10
2011,04,10,19,27,9.10
2011,04,10,19,28,9.10
2011,04,10,19,29,9.10
2011,04,10,19,30,9.10
2011,04,10,19,31,9.10
